Location: The Jewett Observatory
(46.7288°N, 117.1525°W)
Time: 19:33:03
(UTC-07:00)

Meteor 1-28 Rocket - Visible Passes

Search period start: 27 March 2017 00:00
Search period end: 06 April 2017 00:00
Orbit: 507 x 524 km, 97.2° (Epoch: 26 March)

Date Brightness Start Highest point End Pass type
(mag) Time Alt. Az. Time Alt. Az. Time Alt. Az.
27 Mar 3.4 06:01:26 10° SSE 06:05:14 82° ENE 06:09:05 10° N visible
28 Mar 4.1 05:46:48 10° SSE 05:50:31 54° ENE 05:54:17 10° N visible
28 Mar 6.7 20:24:54 10° NNW 20:26:50 14° WNW 20:28:46 10° W visible
29 Mar 5.0 05:32:18 10° SE 05:35:50 37° ENE 05:39:24 10° N visible
29 Mar 6.4 20:09:33 10° NNW 20:12:14 19° WNW 20:14:55 10° WSW visible
30 Mar 5.7 05:17:58 10° SE 05:21:11 26° ENE 05:24:25 10° N visible
30 Mar 5.9 19:54:25 10° N 19:57:36 26° WNW 20:00:46 10° SW visible
31 Mar 6.3 05:03:49 10° ESE 05:06:33 19° ENE 05:09:18 10° NNE visible
01 Apr 6.8 04:49:57 10° E 04:51:57 14° ENE 04:53:57 10° NNE visible
03 Apr 6.9 20:30:58 10° NW 20:32:21 12° WNW 20:33:43 10° W visible
04 Apr 4.7 05:37:45 10° SE 05:41:23 44° ENE 05:45:03 10° N visible
04 Apr 6.6 20:15:22 10° NNW 20:17:45 16° WNW 20:20:07 10° WSW visible
05 Apr 5.5 05:23:20 10° SE 05:26:42 30° ENE 05:30:06 10° N visible
05 Apr 6.2 20:00:09 10° NNW 20:03:08 22° WNW 20:06:04 10° WSW visible
